Kimball, NE

5:36 AM MST on December 03, 2016 (GMT -0700)
Kimball Municipal-Arraj

Weather History for KIBM - November, 2012

Change the Weather History Date:

Sunday, November 4, 2012

  Actual Average (KSNY) Record (KSNY)
Temperature  
Mean Temperature 44 °F 43 °F  
Max Temperature 61 °F 57 °F 78 °F (2007)
Min Temperature 28 °F 29 °F 1 °F (1967)
Degree Days  
Heating Degree Days 20 22  
Month to date heating degree days 86  
Since 1 July heating degree days 689  
Cooling Degree Days 0 0  
Month to date cooling degree days 0  
Year to date cooling degree days 830  
Moisture  
Dew Point 26 °F    
Average Humidity 49    
Maximum Humidity 79    
Minimum Humidity 21    
Precipitation  
Precipitation 0.00 in 0.02 in 0.27 in (2015)
Month to date precipitation 0.08  
Year to date precipitation 17.51  
Sea Level Pressure  
Sea Level Pressure 30.16 in    
Wind  
Wind Speed 10 mph (WNW)    
Max Wind Speed 24 mph    
Max Gust Speed 32 mph    
Visibility 10 miles    
Events      
T = Trace of Precipitation, MM = Missing Value Source: NWS Daily Summary

Daily Weather History Graph

Daily Weather History Graph

Search for Another Location

Airport or City:

Trip Planner

Search our weather history database for the weather conditions in past years. The results will help you decide how hot, cold, wet, or windy it might be!

Date:

Astronomy

Nov. 04, 2012 Rise Set
Actual Time 7:30 AM CST 5:45 PM CST
Civil Twilight 7:01 AM CST 6:14 PM CST
Nautical Twilight 6:28 AM CST 6:47 PM CST
Astronomical Twilight 5:56 AM CST 7:19 PM CST
Moon 10:25 PM CST (11/4) 12:15 PM CST (11/4)
Length of Visible Light 11h 13m
Length of Day
10h 15m
Waning Gibbous, 72% of the Moon is Illuminated
Nov 4
Waning Gibbous
Nov 6
Last Quarter
Nov 13
New
Nov 20
First Quarter
Nov 28
Full

Hourly Weather History & Observations

Time (CST) Temp. Windchill Dew Point Humidity Pressure Visibility Wind Dir Wind Speed Gust Speed Precip Events Conditions
12:15 AM 32.9 °F 26.7 °F 24.3 °F 71% 30.14 in 10.0 mi West 6.9 mph - N/A   Clear
12:35 AM 33.1 °F 28.7 °F 24.6 °F 71% 30.14 in 10.0 mi West 4.6 mph - N/A   Clear
12:55 AM 31.3 °F 24.7 °F 24.1 °F 75% 30.14 in 10.0 mi West 6.9 mph - N/A   Clear
1:15 AM 32.0 °F 24.8 °F 23.9 °F 72% 30.13 in 10.0 mi West 8.1 mph - N/A   Clear
1:35 AM 30.2 °F 25.4 °F 23.4 °F 76% 30.14 in 10.0 mi West 4.6 mph - N/A   Clear
1:55 AM 30.2 °F 25.4 °F 23.2 °F 75% 30.14 in 10.0 mi WSW 4.6 mph - N/A   Clear
1:15 AM 31.6 °F 23.1 °F 23.9 °F 73% 30.13 in 10.0 mi WSW 10.4 mph - N/A   Clear
1:35 AM 31.6 °F 23.7 °F 23.4 °F 71% 30.13 in 10.0 mi West 9.2 mph - N/A   Clear
1:55 AM 31.1 °F - 23.2 °F 72% 30.12 in 10.0 mi Calm Calm - N/A   Clear
2:15 AM 31.1 °F - 23.0 °F 72% 30.13 in 10.0 mi Calm Calm - N/A   Clear
2:35 AM 31.3 °F 26.6 °F 23.0 °F 71% 30.12 in 10.0 mi West 4.6 mph - N/A   Clear
2:55 AM 28.6 °F 23.5 °F 22.6 °F 78% 30.13 in 10.0 mi West 4.6 mph - N/A   Clear
3:15 AM 30.9 °F 23.5 °F 23.9 °F 75% 30.13 in 10.0 mi WSW 8.1 mph - N/A   Clear
3:35 AM 29.3 °F 21.5 °F 23.5 °F 79% 30.12 in 10.0 mi WSW 8.1 mph - N/A   Clear
3:55 AM 30.9 °F 26.2 °F 23.9 °F 75% 30.11 in 10.0 mi West 4.6 mph - N/A   Clear
4:15 AM 31.1 °F 23.1 °F 23.9 °F 75% 30.11 in 10.0 mi West 9.2 mph - N/A   Clear
4:35 AM 32.4 °F 26.0 °F 24.1 °F 72% 30.11 in 10.0 mi West 6.9 mph - N/A   Clear
4:55 AM 36.5 °F 29.2 °F 24.3 °F 61% 30.12 in 10.0 mi WSW 10.4 mph - N/A   Clear
5:15 AM 39.4 °F 32.3 °F 23.5 °F 53% 30.12 in 10.0 mi West 11.5 mph - N/A   Clear
5:35 AM 42.1 °F 35.7 °F 22.3 °F 45% 30.11 in 10.0 mi West 11.5 mph - N/A   Clear
5:55 AM 41.9 °F 35.4 °F 22.1 °F 45% 30.11 in 10.0 mi West 11.5 mph - N/A   Clear
6:15 AM 41.9 °F 35.0 °F 22.1 °F 45% 30.12 in 10.0 mi West 12.7 mph - N/A   Clear
6:35 AM 41.0 °F 33.5 °F 22.5 °F 48% 30.11 in 10.0 mi West 13.8 mph - N/A   Clear
6:55 AM 41.0 °F 34.3 °F 23.0 °F 49% 30.12 in 10.0 mi West 11.5 mph - N/A   Clear
7:15 AM 39.4 °F 32.3 °F 23.0 °F 52% 30.12 in 10.0 mi WSW 11.5 mph - N/A   Clear
7:35 AM 39.6 °F 32.1 °F 23.4 °F 52% 30.12 in 10.0 mi West 12.7 mph - N/A   Clear
7:55 AM 41.7 °F 34.4 °F 23.4 °F 48% 30.13 in 10.0 mi West 13.8 mph - N/A   Clear
8:15 AM 42.1 °F 36.1 °F 23.7 °F 48% 30.13 in 10.0 mi West 10.4 mph - N/A   Clear
8:35 AM 42.1 °F 37.1 °F 25.2 °F 51% 30.14 in 10.0 mi West 8.1 mph - N/A   Clear
8:55 AM 46.0 °F 40.6 °F 24.6 °F 43% 30.15 in 10.0 mi West 11.5 mph - N/A   Clear
9:15 AM 48.0 °F - 24.1 °F 39% 30.15 in 10.0 mi WNW 13.8 mph - N/A   Clear
9:35 AM 49.6 °F - 24.8 °F 38% 30.15 in 10.0 mi WNW 11.5 mph - N/A   Clear
9:55 AM 51.8 °F - 24.8 °F 35% 30.14 in 10.0 mi WNW 12.7 mph - N/A   Clear
10:15 AM 54.3 °F - 23.9 °F 31% 30.14 in 10.0 mi WNW 18.4 mph - N/A   Clear
10:35 AM 55.9 °F - 23.4 °F 28% 30.14 in 10.0 mi WNW 24.2 mph 31.1 mph N/A   Clear
10:55 AM 57.0 °F - 22.8 °F 27% 30.14 in 10.0 mi NW 17.3 mph 28.8 mph N/A   Clear
11:15 AM 57.4 °F - 22.6 °F 26% 30.15 in 10.0 mi WNW 19.6 mph 25.3 mph N/A   Clear
11:35 AM 57.4 °F - 22.1 °F 26% 30.15 in 10.0 mi NW 18.4 mph 21.9 mph N/A   Clear
11:55 AM 58.6 °F - 21.9 °F 24% 30.15 in 10.0 mi NW 18.4 mph 24.2 mph N/A   Clear
12:15 PM 58.1 °F - 20.5 °F 23% 30.15 in 10.0 mi NNW 17.3 mph 25.3 mph N/A   Clear
12:35 PM 59.0 °F - 21.0 °F 23% 30.14 in 10.0 mi NW 18.4 mph 24.2 mph N/A   Clear
12:55 PM 60.1 °F - 21.0 °F 22% 30.14 in 10.0 mi NW 15.0 mph 21.9 mph N/A   Clear
1:15 PM 61.3 °F - 20.7 °F 21% 30.13 in 10.0 mi NW 16.1 mph 23.0 mph N/A   Clear
1:35 PM 61.5 °F - 21.2 °F 21% 30.13 in 10.0 mi NW 17.3 mph 23.0 mph N/A   Clear
1:55 PM 60.4 °F - 21.2 °F 22% 30.13 in 10.0 mi NW 13.8 mph 20.7 mph N/A   Clear
2:15 PM 61.9 °F - 21.0 °F 21% 30.13 in 10.0 mi NNW 18.4 mph 24.2 mph N/A   Scattered Clouds
2:35 PM 60.6 °F - 21.6 °F 22% 30.13 in 10.0 mi NNW 16.1 mph 23.0 mph N/A   Mostly Cloudy
2:55 PM 61.7 °F - 21.6 °F 21% 30.13 in 10.0 mi NNW 18.4 mph 29.9 mph N/A   Mostly Cloudy
3:15 PM 61.2 °F - 22.6 °F 23% 30.13 in 10.0 mi NNW 21.9 mph 32.2 mph N/A   Scattered Clouds
3:35 PM 60.6 °F - 23.0 °F 24% 30.14 in 10.0 mi NNW 19.6 mph 28.8 mph N/A   Clear
3:55 PM 59.9 °F - 23.0 °F 24% 30.15 in 10.0 mi NNW 24.2 mph 29.9 mph N/A   Clear
4:15 PM 59.0 °F - 22.1 °F 24% 30.16 in 10.0 mi NNW 19.6 mph 28.8 mph N/A   Clear
4:35 PM 57.7 °F - 24.3 °F 28% 30.17 in 10.0 mi NNW 18.4 mph 24.2 mph N/A   Mostly Cloudy
4:55 PM 56.5 °F - 25.2 °F 30% 30.18 in 10.0 mi North 16.1 mph 23.0 mph N/A   Overcast
5:15 PM 54.9 °F - 28.2 °F 36% 30.19 in 10.0 mi NNW 11.5 mph - N/A   Overcast
5:35 PM 54.3 °F - 29.3 °F 38% 30.19 in 10.0 mi North 11.5 mph - N/A   Overcast
5:55 PM 51.3 °F - 32.0 °F 48% 30.20 in 10.0 mi North 13.8 mph - N/A   Mostly Cloudy
6:15 PM 50.2 °F - 32.2 °F 50% 30.22 in 10.0 mi North 13.8 mph 19.6 mph N/A   Scattered Clouds
6:35 PM 50.0 °F - 32.4 °F 51% 30.23 in 10.0 mi North 16.1 mph - N/A   Scattered Clouds
6:55 PM 49.6 °F - 32.5 °F 52% 30.23 in 10.0 mi North 13.8 mph - N/A   Mostly Cloudy
7:15 PM 49.5 °F - 33.3 °F 54% 30.24 in 10.0 mi NNW 17.3 mph 27.6 mph N/A   Scattered Clouds
7:35 PM 49.1 °F - 34.0 °F 56% 30.24 in 10.0 mi North 16.1 mph 21.9 mph N/A   Mostly Cloudy
7:55 PM 48.6 °F - 34.3 °F 58% 30.24 in 10.0 mi NNW 11.5 mph - N/A   Overcast
8:15 PM 48.4 °F - 34.3 °F 58% 30.25 in 10.0 mi NNW 13.8 mph - N/A   Overcast
8:35 PM 47.5 °F - 34.9 °F 62% 30.24 in 10.0 mi NNW 13.8 mph 19.6 mph N/A   Overcast
8:55 PM 47.3 °F - 35.2 °F 63% 30.25 in 10.0 mi NNW 15.0 mph - N/A   Overcast
9:15 PM 47.7 °F - 34.9 °F 61% 30.25 in 10.0 mi NNW 16.1 mph - N/A   Overcast
9:35 PM 46.8 °F - 35.1 °F 64% 30.26 in 10.0 mi NNW 10.4 mph - N/A   Overcast
9:55 PM 45.7 °F 42.0 °F 34.9 °F 66% 30.26 in 10.0 mi NW 6.9 mph - N/A   Mostly Cloudy
10:15 PM 45.7 °F 42.0 °F 35.1 °F 66% 30.27 in 10.0 mi NW 6.9 mph - N/A   Overcast
10:35 PM 44.6 °F 41.4 °F 34.9 °F 69% 30.27 in 10.0 mi WNW 5.8 mph - N/A   Overcast
10:55 PM 44.4 °F 42.0 °F 34.7 °F 69% 30.27 in 10.0 mi WNW 4.6 mph - N/A   Overcast